Leuchars, United Kingdom

7:13 PM GMT on February 22, 2017 (GMT +0000)
Leuchars

Weather History for EGQL - October, 2013

Change the Weather History Date:

Wednesday, October 9, 2013

  Actual Average Record
Temperature  
Mean Temperature 48 °F -  
Max Temperature 52 °F 51 °F 64 °F (2003)
Min Temperature 44 °F 40 °F 34 °F (2012)
Degree Days  
Heating Degree Days 17    
Moisture  
Dew Point 38 °F    
Average Humidity 66    
Maximum Humidity 87    
Minimum Humidity 34    
Precipitation  
Precipitation 0.02 in - - ()
Sea Level Pressure  
Sea Level Pressure 29.97 in    
Wind  
Wind Speed 13 mph ()    
Max Wind Speed 23 mph    
Max Gust Speed 38 mph    
Visibility 7.2 miles    
Events Rain    
Averages and records for this station are not official NWS values.
T = Trace of Precipitation, MM = Missing Value Source: Averaged Metar Reports

Daily Weather History Graph

Daily Weather History Graph

Search for Another Location

Airport or City:

Trip Planner

Search our weather history database for the weather conditions in past years. The results will help you decide how hot, cold, wet, or windy it might be!

Date:

Astronomy

Oct. 09, 2013 Rise Set
Actual Time 7:31 AM BST 6:25 PM BST
Civil Twilight 6:53 AM BST 7:02 PM BST
Nautical Twilight 6:10 AM BST 7:46 PM BST
Astronomical Twilight 5:25 AM BST 8:30 PM BST
Moon 12:58 PM BST (10/9) 8:58 PM BST (10/9)
Length of Visible Light 12h 09m
Length of Day
10h 54m
Waxing Crescent, 23% of the Moon is Illuminated
Oct 9
Waxing Crescent
Oct 12
First Quarter
Oct 19
Full
Oct 27
Last Quarter
Nov 3
New

Hourly Weather History & Observations

Time (BST) Temp. Windchill Dew Point Humidity Pressure Visibility Wind Dir Wind Speed Gust Speed Precip Events Conditions
12:50 AM 51 °F - 45 °F 72% 30.09 in 25 mi WSW 12.7 mph - -   Scattered Clouds
12:50 AM 51.8 °F - 44.6 °F 76% 30.06 in 6.2 mi WSW 12.7 mph - N/A   Mostly Cloudy
1:50 AM 50.0 °F - 46.4 °F 87% 30.06 in 6.2 mi West 12.7 mph - N/A   Mostly Cloudy
2:50 AM 48.2 °F - 44.6 °F 87% 30.06 in 6.2 mi WSW 8.1 mph - N/A   Mostly Cloudy
3:50 AM 49 °F - 41 °F 66% 30.05 in 31 mi West 11.5 mph - -   Scattered Clouds
3:50 AM 50.0 °F - 41.0 °F 71% 30.04 in 6.2 mi West 11.5 mph - N/A   Partly Cloudy
4:50 AM 44.6 °F 38.8 °F 41.0 °F 87% 30.01 in 6.2 mi West 11.5 mph - N/A   Partly Cloudy
5:50 AM 48.2 °F - 42.8 °F 82% 29.98 in 6.2 mi West 17.3 mph - N/A   Mostly Cloudy
6:50 AM 46 °F - 40 °F 74% 29.97 in 34 mi WSW 17.3 mph - -   Scattered Clouds
6:50 AM 46.4 °F 39.5 °F 41.0 °F 81% 29.95 in 6.2 mi WSW 17.3 mph - N/A   Mostly Cloudy
7:50 AM 46.4 °F 39.8 °F 41.0 °F 81% 29.92 in 6.2 mi WSW 16.1 mph - N/A   Mostly Cloudy
8:50 AM 48.2 °F - 44.6 °F 87% 29.92 in 6.2 mi West 13.8 mph - N/A   Mostly Cloudy
9:50 AM 49 °F - 45 °F 80% 29.91 in 19 mi West 12.7 mph - - Rain Light Rain Showers
9:50 AM 50.0 °F - 44.6 °F 82% 29.89 in 6.2 mi West 12.7 mph - N/A Rain Light Rain Showers
10:50 AM 48.2 °F - 37.4 °F 66% 29.92 in 6.2 mi WNW 18.4 mph - N/A   Partly Cloudy
11:50 AM 50.0 °F - 33.8 °F 54% 29.89 in 6.2 mi WNW 21.9 mph 33.4 mph N/A   Partly Cloudy
12:50 PM 51 °F - 31 °F 34% 29.91 in 37 mi WNW 21.9 mph - -   Partly Cloudy
12:50 PM 51.8 °F - 32.0 °F 47% 29.89 in 6.2 mi WNW 21.9 mph - N/A   Partly Cloudy
1:50 PM 51.8 °F - 32.0 °F 47% 29.86 in 6.2 mi WNW 21.9 mph - N/A   Partly Cloudy
2:50 PM 51.8 °F - 30.2 °F 44% 29.86 in - WNW 23.0 mph 38.0 mph N/A   Clear
3:50 PM 51 °F - 34 °F 41% 29.86 in 25 mi NW 20.7 mph - -   Partly Cloudy
3:50 PM 51.8 °F - 33.8 °F 50% 29.86 in 6.2 mi NW 20.7 mph 33.4 mph N/A   Scattered Clouds
4:50 PM 50.0 °F - 35.6 °F 58% 29.86 in 6.2 mi NW 19.6 mph 33.4 mph N/A   Scattered Clouds
5:50 PM 48.2 °F - 37.4 °F 66% 29.92 in 6.2 mi NNW 17.3 mph 29.9 mph N/A Rain Light Rain Showers
6:50 PM 47 °F - 36 °F 56% 29.97 in 19 mi NW 11.5 mph - - Rain Light Rain Showers
6:50 PM 46.4 °F 41.1 °F 35.6 °F 66% 29.95 in 6.2 mi NW 11.5 mph - N/A   Scattered Clouds
7:50 PM 46.4 °F 41.1 °F 33.8 °F 62% 29.98 in 6.2 mi NW 11.5 mph - N/A   Scattered Clouds
8:50 PM 46.4 °F 41.5 °F 33.8 °F 62% 30.01 in 6.2 mi NNW 10.4 mph - N/A   Partly Cloudy
9:50 PM 45 °F - 33 °F 51% 30.06 in 22 mi NNW 11.5 mph - -   Scattered Clouds
9:50 PM 44.6 °F 38.8 °F 33.8 °F 66% 30.04 in 6.2 mi NNW 11.5 mph - N/A   Partly Cloudy
10:50 PM 46.4 °F 40.4 °F 32.0 °F 57% 30.06 in 6.2 mi North 13.8 mph 26.5 mph N/A   Partly Cloudy
11:50 PM 44.6 °F 38.4 °F 30.2 °F 57% 30.09 in 6.2 mi North 12.7 mph - N/A   Partly Cloudy